KN6WGU Weather Reports


time (UTC)temp
F
wind
direction
speed
knots
gust
knots
rain 1hr
in
rain 24hr
in
rain mn
in
humidity
%
barometer
mb
20260508125435 50 150 0.0 0.0 0.00 0.03 0.03 82 1006.1
20260508124933 50 142 0.0 0.0 0.00 0.03 0.03 85 1006.2
20260508124431 49 143 0.0 0.0 0.07 0.03 0.03 85 1006.0
20260508123928 49 138 0.0 0.0 0.07 0.03 0.03 84 1005.8
20260508123427 49 153 0.0 0.0 0.05 0.02 0.02 83 1005.8
20260508122923 49 154 0.0 0.0 0.12 0.02 0.02 84 1005.9
20260508122420 50 133 0.0 0.0 0.12 0.02 0.02 81 1005.9
20260508121917 50 135 0.0 0.0 0.00 0.00 0.00 80 1006.5
20260508121415 50 179 0.0 0.9 0.00 0.00 0.00 79 1006.1
20260508120912 50 139 0.9 0.9 0.00 0.00 0.00 76 1005.9
20260508120410 50 129 0.0 0.0 0.00 0.00 0.00 75 1005.9
20260508115907 50 136 0.0 0.0 0.00 0.00 0.00 75 1005.8
20260508115405 51 162 0.0 0.0 0.00 0.00 0.00 74 1005.4
20260508114901 51 160 0.0 0.9 0.00 0.00 0.00 74 1005.5
20260508114358 51 222 1.7 1.7 0.00 0.00 0.00 73 1005.4
20260508113855 51 165 0.9 0.9 0.00 0.00 0.00 73 1005.5
20260508113353 51 200 1.7 1.7 0.00 0.00 0.00 73 1005.1
20260508112849 51 157 0.0 0.0 0.00 0.00 0.00 73 1005.3
20260508112347 51 156 0.0 0.0 0.00 0.00 0.00 73 1005.1
20260508111843 51 166 1.7 1.7 0.00 0.00 0.00 72 1005.2
20260508111340 51 157 1.7 2.6 0.00 0.00 0.00 72 1005.1
20260508110837 51 156 0.0 0.0 0.00 0.00 0.00 72 1004.9
20260508110335 51 167 1.7 1.7 0.00 0.00 0.00 71 1005.0
20260508105834 51 155 0.9 0.9 0.00 0.00 0.00 72 1005.0
20260508105331 50 158 1.7 1.7 0.00 0.00 0.00 72 1005.1
20260508104828 50 166 0.0 0.0 0.00 0.00 0.00 72 1005.0
20260508104320 50 161 0.9 1.7 0.00 0.00 0.00 73 1005.0
20260508103817 50 172 0.9 0.9 0.00 0.00 0.00 73 1005.1
20260508103314 50 196 0.0 0.9 0.00 0.00 0.00 74 1005.1
20260508102812 50 243 0.9 1.7 0.00 0.00 0.00 74 1005.1
20260508102310 49 192 1.7 1.7 0.00 0.00 0.00 74 1005.0
20260508101807 49 201 0.9 1.7 0.00 0.00 0.00 75 1004.9
20260508101304 48 150 0.9 0.9 0.00 0.00 0.00 77 1004.9
20260508100801 48 183 0.9 1.7 0.00 0.00 0.00 78 1004.9
20260508100300 48 156 0.0 0.0 0.00 0.00 0.00 78 1005.0
20260508095755 48 163 0.9 1.7 0.00 0.00 0.00 79 1005.1
20260508095253 47 167 0.0 0.0 0.00 0.00 0.00 80 1004.9
20260508094750 47 188 0.0 0.0 0.00 0.00 0.00 80 1005.0
20260508094247 47 189 0.9 1.7 0.00 0.00 0.00 80 1005.1
20260508093744 47 169 0.0 0.9 0.00 0.00 0.00 81 1005.1
20260508093242 47 158 0.0 0.0 0.00 0.00 0.00 81 1004.8
20260508092738 47 160 0.0 0.0 0.00 0.00 0.00 81 1005.0
20260508092236 47 165 0.0 0.0 0.00 0.00 0.00 80 1005.1
20260508091734 47 194 0.9 0.9 0.00 0.00 0.00 80 1005.2
20260508091231 47 158 0.0 0.0 0.00 0.00 0.00 79 1005.2
20260508090729 48 155 0.0 0.9 0.00 0.00 0.00 79 1005.1
20260508090226 48 174 0.9 0.9 0.00 0.00 0.00 78 1005.3
20260508085722 48 152 0.9 0.9 0.00 0.00 0.00 78 1005.1
20260508085219 48 161 0.9 0.9 0.00 0.00 0.00 78 1005.3
20260508084715 48 156 0.9 1.7 0.00 0.00 0.00 78 1005.1
20260508084213 48 165 0.9 0.9 0.00 0.00 0.00 77 1005.1
20260508083710 48 196 1.7 2.6 0.00 0.00 0.00 77 1005.2
20260508083207 48 153 0.9 0.9 0.00 0.00 0.00 78 1005.3
20260508082701 48 186 2.6 2.6 0.00 0.00 0.00 78 1005.4
20260508082159 48 150 0.9 1.7 0.00 0.00 0.00 78 1005.3
20260508081657 48 271 2.6 5.2 0.00 0.00 0.00 78 1005.3
20260508081153 48 156 0.9 1.7 0.00 0.00 0.00 78 1005.4
20260508080650 48 163 0.9 0.9 0.00 0.00 0.00 79 1005.4
20260508080149 48 155 0.9 0.9 0.00 0.00 0.00 79 1005.3
20260508075644 47 164 0.9 0.9 0.00 0.00 0.00 78 1005.4
20260508075142 47 135 0.0 0.0 0.00 0.00 0.00 78 1005.4
20260508074639 48 154 0.0 0.0 0.00 0.00 0.00 76 1005.4
20260508074136 48 151 0.0 0.0 0.00 0.00 0.00 76 1005.3
20260508073633 48 149 0.9 0.9 0.00 0.00 0.00 75 1005.4
20260508073131 48 253 0.9 1.7 0.00 0.00 0.00 76 1005.5
20260508072626 48 143 0.0 0.0 0.00 0.00 0.00 75 1005.4
20260508072124 49 157 0.9 0.9 0.00 0.00 0.00 74 1005.6
20260508071621 49 221 0.9 1.7 0.00 0.00 0.00 73 1005.5
20260508071120 49 194 0.9 0.9 0.00 0.00 0.00 73 1005.4
20260508070617 49 170 0.9 1.7 0.00 0.00 0.00 73 1005.5
20260508070116 49 160 1.7 1.7 0.00 0.00 0.00 72 1005.6
20260508065613 48 155 1.7 3.5 0.00 0.00 0.00 72 1005.8
20260508065110 48 173 0.9 1.7 0.00 0.00 0.00 72 1005.6
20260508064608 48 167 0.0 0.0 0.00 0.00 0.00 72 1005.7
20260508064106 48 224 1.7 2.6 0.00 0.00 0.00 72 1005.6
20260508063602 48 159 0.9 0.9 0.00 0.00 0.00 72 1005.6
20260508063101 48 160 0.0 0.0 0.00 0.00 0.00 73 1005.6
20260508062557 48 161 0.0 0.0 0.00 0.00 0.00 72 1005.7
20260508062054 48 158 0.9 0.9 0.00 0.00 0.00 72 1005.6
20260508061552 48 153 0.9 0.9 0.00 0.00 0.00 70 1005.4
20260508061048 48 222 0.9 1.7 0.00 0.00 0.00 70 1005.6
20260508060545 48 154 0.0 0.0 0.00 0.00 0.00 71 1005.6
20260508060043 49 162 0.0 0.0 0.00 0.00 0.00 69 1005.7
20260508055538 49 157 0.0 0.9 0.00 0.00 0.00 69 1005.8
20260508055035 49 174 0.0 0.9 0.00 0.00 0.00 68 1005.6
20260508054532 49 192 1.7 1.7 0.00 0.00 0.00 68 1005.9
20260508054029 49 152 0.0 0.9 0.00 0.00 0.00 68 1006.0
20260508053526 49 184 0.9 0.9 0.00 0.00 0.00 68 1005.7
20260508053024 49 158 0.0 0.0 0.00 0.00 0.00 68 1005.9
20260508052521 49 160 0.0 0.0 0.00 0.00 0.00 68 1005.9
20260508052018 49 161 0.0 0.0 0.00 0.00 0.00 68 1006.1
20260508051514 49 166 0.9 0.9 0.00 0.00 0.00 68 1006.0
20260508051010 49 157 0.0 0.0 0.00 0.00 0.00 68 1006.1
20260508050506 50 157 0.0 0.0 0.00 0.00 0.00 67 1006.0
20260508050003 49 158 0.9 0.9 0.00 0.00 0.00 66 1006.1
20260508045459 49 156 0.0 0.0 0.00 0.00 0.00 67 1006.0
20260508044957 50 150 0.0 0.0 0.00 0.00 0.00 66 1006.2
20260508044454 49 167 0.9 0.9 0.00 0.00 0.00 65 1006.1
20260508043949 50 163 0.0 0.0 0.00 0.00 0.00 65 1006.3
20260508043447 50 217 1.7 1.7 0.00 0.00 0.00 65 1006.1
20260508042943 50 164 0.0 0.9 0.00 0.00 0.00 65 1006.2
20260508042441 50 163 0.0 0.0 0.00 0.00 0.00 64 1006.1
20260508041938 50 173 0.9 0.9 0.00 0.00 0.00 64 1006.4
20260508041434 50 156 0.0 0.9 0.00 0.00 0.00 64 1006.2
20260508040931 50 161 0.9 0.9 0.00 0.00 0.00 63 1006.2
20260508040428 51 162 0.0 0.0 0.00 0.00 0.00 63 1006.2
20260508035926 51 161 0.0 0.9 0.00 0.00 0.00 62 1006.2
20260508035423 51 171 1.7 3.5 0.00 0.00 0.00 62 1006.2
20260508034919 50 160 0.9 1.7 0.00 0.00 0.00 63 1006.2
20260508034417 51 168 0.9 0.9 0.00 0.00 0.00 63 1006.3
20260508033913 51 164 1.7 1.7 0.00 0.00 0.00 62 1006.2
20260508033412 51 152 0.9 1.7 0.00 0.00 0.00 61 1006.1
20260508032909 51 145 1.7 2.6 0.00 0.00 0.00 61 1006.3
20260508032406 51 272 3.5 6.1 0.00 0.00 0.00 60 1006.5
20260508031903 51 200 1.7 2.6 0.00 0.00 0.00 60 1006.2
20260508031400 51 148 1.7 1.7 0.00 0.00 0.00 59 1006.4
20260508030855 51 162 1.7 1.7 0.00 0.00 0.00 60 1006.5
20260508030353 51 154 0.9 0.9 0.00 0.00 0.00 60 1006.2
20260508025850 51 145 0.9 0.9 0.00 0.00 0.00 61 1006.5
20260508025341 50 175 0.9 0.9 0.00 0.00 0.00 60 1006.4
20260508024838 50 155 0.0 0.0 0.00 0.00 0.00 61 1006.5
20260508024335 50 223 1.7 1.7 0.00 0.00 0.00 61 1006.4
20260508023831 50 162 0.0 0.0 0.00 0.00 0.00 62 1006.3
20260508023329 50 189 0.9 1.7 0.00 0.00 0.00 62 1006.3
20260508022825 49 158 0.9 0.9 0.00 0.00 0.00 63 1006.2
20260508022321 49 160 0.0 0.0 0.00 0.00 0.00 64 1006.3
20260508021818 49 155 0.0 0.0 0.00 0.00 0.00 66 1006.4
20260508021314 49 154 0.0 0.0 0.00 0.00 0.00 64 1006.2
20260508020811 49 155 0.0 0.0 0.00 0.00 0.00 64 1006.2
20260508020309 48 161 0.9 1.7 0.00 0.00 0.00 64 1006.3
20260508015805 47 154 0.0 0.0 0.00 0.00 0.00 71 1006.2
20260508015305 48 145 0.0 0.0 0.00 0.00 0.00 73 1006.0
20260508014758 47 145 0.0 0.0 0.00 0.00 0.00 71 1006.0
20260508014256 47 146 0.0 0.0 0.00 0.00 0.00 71 1006.1
20260508013751 47 145 0.0 0.0 0.00 0.00 0.00 70 1005.9
20260508013248 47 145 0.0 0.0 0.00 0.00 0.00 69 1006.0
20260508012745 47 145 0.0 0.0 0.00 0.00 0.00 69 1006.0
20260508012242 47 145 0.0 0.0 0.00 0.00 0.00 69 1005.7
20260508011740 48 145 0.0 0.0 0.00 0.00 0.00 68 1005.7
20260508011237 48 145 0.0 0.0 0.00 0.00 0.00 66 1005.7
20260508010734 49 145 0.0 0.0 0.00 0.00 0.00 67 1005.8
20260508010233 49 145 0.0 0.0 0.00 0.00 0.00 64 1005.8
20260508005729 49 145 0.0 0.0 0.00 0.00 0.00 64 1005.7
20260508005226 49 145 0.0 0.0 0.00 0.00 0.00 63 1005.5
20260508004721 50 145 0.0 0.0 0.00 0.00 0.00 61 1005.8
20260508004218 50 145 0.0 0.0 0.00 0.00 0.00 60 1005.7
20260508003715 51 145 0.0 0.0 0.00 0.00 0.00 61 1005.7
20260508003212 51 145 0.0 0.0 0.00 0.00 0.00 59 1005.6
20260508002708 52 145 0.0 0.0 0.00 0.00 0.00 56 1005.5
20260508002206 52 136 0.0 0.0 0.00 0.00 0.00 55 1005.7
20260508001701 53 141 0.0 0.0 0.00 0.00 0.00 55 1005.6
20260508001157 53 150 0.0 0.0 0.00 0.00 0.00 52 1005.4
20260508000654 53 156 0.0 0.0 0.00 0.00 0.00 51 1005.5
20260508000151 54 268 0.9 1.7 0.00 0.00 0.00 51 1005.3
20260507235647 54 127 0.0 0.9 0.00 0.00 0.00 50 1005.5
20260507235145 54 117 0.9 0.9 0.00 0.00 0.00 52 1005.5
20260507234642 54 282 1.7 2.6 0.00 0.00 0.00 52 1005.4
20260507234133 55 155 0.0 0.0 0.00 0.00 0.00 50 1005.4
20260507233630 55 117 0.0 0.0 0.00 0.00 0.00 49 1005.5
20260507233128 55 155 0.0 0.0 0.00 0.00 0.00 47 1005.6
20260507232625 56 134 0.9 0.9 0.00 0.00 0.00 47 1005.4
20260507232122 57 123 2.6 3.5 0.00 0.00 0.00 48 1005.4
20260507231618 57 196 0.0 0.9 0.00 0.00 0.00 47 1005.6
20260507231115 57 167 0.0 0.0 0.00 0.00 0.00 46 1005.5
20260507230611 58 26 0.9 2.6 0.00 0.00 0.00 48 1005.7
20260507230108 57 208 0.9 0.9 0.00 0.00 0.00 49 1005.7
20260507225602 58 183 0.9 0.9 0.00 0.00 0.00 48 1005.9
20260507225100 57 137 0.0 0.0 0.00 0.00 0.00 49 1005.8
20260507224555 57 143 0.0 0.0 0.00 0.00 0.00 49 1005.9
20260507224052 56 113 0.9 1.7 0.00 0.00 0.00 51 1005.8
20260507223548 56 209 1.7 2.6 0.00 0.00 0.00 51 1005.9
20260507223045 55 358 3.5 5.2 0.00 0.00 0.00 50 1005.9
20260507222542 55 235 1.7 2.6 0.00 0.00 0.00 49 1005.7
20260507222038 55 276 2.6 3.5 0.00 0.00 0.00 48 1005.8
20260507221535 55 109 0.9 0.9 0.00 0.00 0.00 49 1005.7
20260507221032 55 139 0.9 0.9 0.00 0.00 0.00 50 1005.6
20260507220529 55 125 0.0 0.9 0.00 0.00 0.00 50 1005.9
20260507220027 56 291 1.7 1.7 0.00 0.00 0.00 47 1005.7
20260507215522 56 145 0.9 1.7 0.00 0.00 0.00 51 1005.7
20260507215021 56 11 2.6 3.5 0.00 0.00 0.00 50 1005.5
20260507214518 55 249 1.7 2.6 0.00 0.00 0.00 46 1005.8
20260507214013 56 34 1.7 2.6 0.00 0.00 0.00 48 1005.8
20260507213510 56 135 0.0 0.0 0.00 0.00 0.00 49 1005.5
20260507213007 56 122 0.9 1.7 0.00 0.00 0.00 47 1005.8
20260507212502 56 157 0.9 0.9 0.00 0.00 0.00 48 1005.6
20260507211959 56 137 2.6 3.5 0.00 0.00 0.00 47 1005.7
20260507211456 56 102 0.9 0.9 0.00 0.00 0.00 47 1005.6
20260507210953 56 199 1.7 1.7 0.00 0.00 0.00 45 1005.6
20260507210450 56 196 2.6 3.5 0.00 0.00 0.00 44 1005.6
20260507205947 56 275 1.7 5.2 0.00 0.00 0.00 46 1005.7
20260507205443 57 76 3.5 7.8 0.00 0.00 0.00 48 1005.5
20260507204939 57 235 0.9 1.7 0.00 0.00 0.00 49 1005.3
20260507204436 57 150 1.7 2.6 0.00 0.00 0.00 52 1005.5
20260507203934 57 239 1.7 1.7 0.00 0.00 0.00 51 1005.5
20260507203426 58 96 0.0 0.9 0.00 0.00 0.00 52 1005.4
20260507202922 58 160 0.0 0.0 0.00 0.00 0.00 50 1005.5
20260507202418 59 329 0.0 0.9 0.00 0.00 0.00 51 1005.5
20260507201914 60 239 0.9 1.7 0.00 0.00 0.00 51 1005.3
20260507201409 60 145 0.9 0.9 0.00 0.00 0.00 50 1005.3
20260507200907 59 131 0.0 0.9 0.00 0.00 0.00 53 1005.6
20260507200402 55 81 1.7 1.7 0.00 0.00 0.00 57 1005.6
20260507195858 54 145 0.9 0.9 0.00 0.00 0.00 57 1005.5
20260507195356 55 252 0.9 1.7 0.00 0.00 0.00 56 1005.3
20260507194853 55 120 0.9 0.9 0.00 0.00 0.00 57 1005.8
20260507194349 54 152 0.0 0.0 0.00 0.00 0.00 57 1005.5
20260507193846 54 23 0.9 0.9 0.00 0.00 0.00 57 1005.4
20260507193343 55 87 0.9 0.9 0.00 0.00 0.00 57 1005.7
20260507192839 57 109 1.7 2.6 0.00 0.00 0.00 55 1005.6
20260507192336 57 152 0.9 1.7 0.00 0.00 0.00 56 1005.7
20260507191832 56 209 2.6 2.6 0.00 0.00 0.00 58 1005.8
20260507191328 55 321 0.9 0.9 0.00 0.00 0.00 59 1005.7
20260507190825 56 21 0.9 1.7 0.00 0.00 0.00 57 1005.6
20260507190324 57 239 0.9 1.7 0.00 0.00 0.00 54 1005.6
20260507185822 56 139 0.9 1.7 0.00 0.00 0.00 55 1005.9
20260507185319 57 125 0.0 0.9 0.00 0.00 0.00 54 1005.8
20260507184816 58 102 0.9 1.7 0.00 0.00 0.00 51 1005.8
20260507184314 57 61 1.7 1.7 0.00 0.00 0.00 54 1005.8
20260507183810 57 148 1.7 2.6 0.00 0.00 0.00 51 1005.9
20260507183307 57 219 0.0 0.0 0.00 0.00 0.00 55 1005.9
20260507182805 57 112 1.7 2.6 0.00 0.00 0.00 53 1005.9
20260507182301 58 142 1.7 2.6 0.00 0.00 0.00 54 1005.8
20260507181757 58 70 0.9 1.7 0.00 0.00 0.00 54 1005.7
20260507181254 58 335 1.7 2.6 0.00 0.00 0.00 54 1005.8
20260507180750 57 239 1.7 1.7 0.00 0.00 0.00 57 1006.0
20260507180247 58 159 2.6 3.5 0.00 0.00 0.00 53 1005.9
20260507175743 57 147 0.9 1.7 0.00 0.00 0.00 52 1005.9
20260507175240 57 314 1.7 1.7 0.00 0.00 0.00 53 1006.1
20260507174737 57 206 1.7 2.6 0.00 0.00 0.00 55 1006.0
20260507174235 57 153 1.7 1.7 0.00 0.00 0.00 56 1006.0
20260507173732 56 134 0.0 0.0 0.00 0.00 0.00 58 1006.0
20260507173229 56 138 1.7 1.7 0.00 0.00 0.00 53 1006.0
20260507172725 56 129 0.0 0.9 0.00 0.00 0.00 56 1006.3
20260507172222 56 64 0.9 1.7 0.00 0.00 0.00 56 1006.4
20260507171722 56 114 0.0 0.9 0.00 0.00 0.00 55 1006.2
20260507171220 55 181 2.6 3.5 0.00 0.00 0.00 58 1006.3
20260507170716 55 252 2.6 3.5 0.00 0.00 0.00 62 1006.2
20260507170214 54 211 1.7 1.7 0.00 0.00 0.00 64 1006.5
20260507165709 54 160 1.7 1.7 0.00 0.00 0.00 68 1006.5
20260507165206 54 168 0.9 1.7 0.00 0.00 0.00 66 1006.4
20260507164701 54 220 2.6 3.5 0.00 0.00 0.00 62 1006.2
20260507164159 54 103 0.9 0.9 0.00 0.00 0.00 63 1006.3
20260507163656 53 119 0.9 1.7 0.00 0.00 0.00 60 1006.3
20260507163154 54 157 1.7 2.6 0.00 0.00 0.00 58 1006.2
20260507162649 54 94 0.0 0.9 0.00 0.00 0.00 62 1006.2
20260507162146 54 147 0.9 1.7 0.00 0.00 0.00 60 1006.2
20260507161642 54 168 0.0 0.9 0.00 0.00 0.00 64 1006.0
20260507161139 54 49 1.7 1.7 0.00 0.00 0.00 60 1006.2
20260507160635 54 104 0.9 1.7 0.00 0.00 0.00 60 1006.3
20260507160132 53 131 0.0 0.9 0.00 0.00 0.00 64 1006.3
20260507155627 53 58 0.9 1.7 0.00 0.00 0.00 62 1006.3
20260507155124 53 145 0.0 0.0 0.00 0.00 0.00 63 1006.4
20260507154621 53 270 1.7 3.5 0.00 0.00 0.00 62 1006.4
20260507154118 53 51 1.7 1.7 0.00 0.00 0.00 61 1006.4
20260507153614 54 12 0.9 0.9 0.00 0.00 0.00 63 1006.5
20260507153111 53 164 0.0 0.0 0.00 0.00 0.00 66 1006.4
20260507152607 53 156 0.0 0.0 0.00 0.00 0.00 65 1006.5
20260507152103 53 213 0.9 0.9 0.00 0.00 0.00 63 1006.5
20260507151600 53 127 0.9 0.9 0.00 0.00 0.00 67 1006.6
20260507151057 53 145 0.0 0.9 0.00 0.00 0.00 68 1006.5
20260507150554 52 116 1.7 1.7 0.00 0.00 0.00 67 1006.5
20260507150051 53 126 1.7 1.7 0.00 0.00 0.00 69 1006.4
20260507145545 53 110 1.7 2.6 0.00 0.00 0.00 71 1006.4
20260507145044 53 126 0.9 0.9 0.00 0.00 0.00 71 1006.4
20260507144540 52 136 0.0 0.0 0.00 0.00 0.00 71 1006.3
20260507144038 52 108 0.9 1.7 0.00 0.00 0.00 71 1006.2
20260507143535 53 139 0.0 0.0 0.00 0.00 0.00 71 1006.2
20260507143032 52 37 0.9 0.9 0.00 0.00 0.00 70 1006.3
20260507142527 52 117 0.0 0.0 0.00 0.00 0.00 71 1006.2
20260507142025 52 153 0.0 0.0 0.00 0.00 0.00 71 1006.3
20260507141520 53 115 1.7 1.7 0.00 0.00 0.00 70 1006.3
20260507141017 52 142 0.0 0.0 0.00 0.00 0.00 72 1006.2
20260507140514 52 156 0.0 0.0 0.00 0.00 0.00 71 1006.2
20260507140012 52 187 0.9 0.9 0.00 0.00 0.00 71 1006.4
20260507135508 52 146 1.7 2.6 0.00 0.00 0.00 73 1006.5
20260507135006 52 171 0.9 1.7 0.00 0.00 0.00 70 1006.6
20260507134502 52 121 0.0 0.9 0.00 0.00 0.00 72 1006.5
20260507133958 52 126 0.0 0.0 0.00 0.00 0.00 71 1006.7
20260507133454 51 149 0.9 1.7 0.00 0.00 0.00 72 1006.6
20260507132953 51 75 0.9 0.9 0.00 0.00 0.00 73 1006.6
20260507132448 50 147 0.0 0.0 0.00 0.00 0.00 75 1006.6
20260507131945 50 142 0.0 0.9 0.00 0.00 0.00 75 1006.7
20260507131442 50 165 0.9 0.9 0.00 0.00 0.00 74 1006.5
20260507130939 49 136 0.0 0.0 0.00 0.00 0.00 75 1006.4
20260507130436 49 144 0.0 0.0 0.00 0.00 0.00 75 1006.5
20260507125935 49 125 0.0 0.9 0.00 0.00 0.00 75 1006.6